EA4TN Weather Reports


time (UTC)temp
F
wind
direction
speed
knots
gust
knots
rain 1hr
in
rain 24hr
in
rain mn
in
humidity
%
barometer
mb
20260507203016 54 105 0.9 2.6 0.00 0.46 0.46 78 1011.7
20260507202017 54 106 0.0 1.7 0.00 0.46 0.46 78 1011.6
20260507201017 55 93 1.7 5.2 0.00 0.46 0.46 77 1011.4
20260507200016 55 108 1.7 4.3 0.00 0.46 0.46 77 1011.3
20260507195016 56 79 1.7 3.5 0.00 0.46 0.46 76 1011.2
20260507194016 56 101 0.9 1.7 0.00 0.46 0.46 75 1011.0
20260507193017 56 105 0.0 3.5 0.00 0.46 0.46 75 1010.9
20260507192017 57 115 0.0 3.5 0.00 0.46 0.46 74 1010.8
20260507191017 57 50 0.9 2.6 0.00 0.46 0.46 74 1010.8
20260507190017 58 49 1.7 2.6 0.00 0.46 0.46 73 1010.5
20260507185017 58 49 1.7 3.5 0.00 0.46 0.46 72 1010.2
20260507184016 59 49 1.7 4.3 0.00 0.46 0.46 71 1010.2
20260507183037 59 52 3.5 5.2 0.00 0.46 0.46 70 1010.0
20260507182017 60 56 1.7 4.3 0.00 0.46 0.46 66 1010.1
20260507181037 60 62 1.7 4.3 0.00 0.46 0.46 68 1010.1
20260507180017 59 57 1.7 4.3 0.00 0.46 0.46 70 1009.9
20260507175017 59 45 1.7 4.3 0.00 0.46 0.46 71 1009.8
20260507174017 59 66 1.7 4.3 0.00 0.46 0.46 70 1009.9
20260507173017 59 66 2.6 5.2 0.00 0.46 0.46 70 1009.8
20260507172016 58 62 2.6 5.2 0.00 0.46 0.46 73 1009.8
20260507171037 58 59 2.6 6.1 0.00 0.46 0.46 76 1009.8
20260507170017 56 64 3.5 7.0 0.01 0.46 0.46 79 1009.7
20260507165017 55 58 4.3 7.8 0.02 0.46 0.46 81 1009.5
20260507164016 54 77 4.3 7.8 0.02 0.46 0.46 83 1009.5
20260507163016 52 69 2.6 5.2 0.03 0.46 0.46 86 1009.4
20260507162017 51 63 3.5 7.0 0.05 0.46 0.46 87 1009.2
20260507161017 52 65 4.3 7.0 0.05 0.46 0.46 86 1009.3
20260507160018 53 99 2.6 11.3 0.04 0.45 0.45 88 1009.8
20260507155017 53 113 6.1 9.6 0.03 0.44 0.44 89 1010.3
20260507154017 53 273 1.7 5.2 0.02 0.43 0.43 93 1010.5
20260507153017 53 272 2.6 6.1 0.02 0.43 0.43 93 1010.5
20260507152017 53 336 3.5 7.8 0.00 0.41 0.41 94 1010.2
20260507151017 53 357 4.3 8.7 0.00 0.41 0.41 93 1010.0
20260507150017 53 10 4.3 9.6 0.00 0.41 0.41 93 1010.2
20260507145037 53 23 5.2 11.3 0.00 0.41 0.41 92 1010.2
20260507144017 54 39 5.2 10.4 0.00 0.41 0.41 93 1010.0
20260507143017 55 35 6.1 12.2 0.01 0.41 0.41 94 1010.1
20260507142037 55 34 6.1 11.3 0.06 0.41 0.41 94 1009.9
20260507141017 54 45 4.3 8.7 0.08 0.41 0.41 94 1009.8
20260507140017 54 49 4.3 8.7 0.09 0.41 0.41 95 1009.8
20260507135017 53 62 4.3 11.3 0.13 0.41 0.41 95 1009.7
20260507134017 51 49 7.8 11.3 0.41 0.41 0.41 95 1009.7
20260507133017 49 30 3.5 13.0 0.40 0.40 0.40 93 1010.0
20260507132017 48 23 8.7 15.6 0.35 0.35 0.35 93 1009.7
20260507131017 49 21 5.2 9.6 0.33 0.33 0.33 92 1010.2
20260507130017 50 37 5.2 10.4 0.32 0.32 0.32 90 1009.9
20260507125037 55 358 5.2 14.8 0.28 0.28 0.28 77 1010.1
20260507124017 58 117 2.6 11.3 0.00 0.00 0.00 67 1009.6
20260507123037 58 102 6.1 12.2 0.00 0.00 0.00 67 1009.6
20260507122017 59 98 5.2 12.2 0.00 0.00 0.00 65 1010.0
20260507121017 59 64 4.3 8.7 0.00 0.00 0.00 65 1010.0
20260507120017 60 73 2.6 6.1 0.00 0.00 0.00 68 1009.9
20260507115017 60 117 1.7 7.8 0.00 0.00 0.00 68 1009.9
20260507114017 62 101 2.6 5.2 0.00 0.00 0.00 68 1010.3
20260507113037 63 46 1.7 3.5 0.00 0.00 0.00 64 1010.3
20260507112017 63 95 0.9 4.3 0.00 0.00 0.00 61 1010.4
20260507111017 64 32 0.9 4.3 0.00 0.00 0.00 61 1010.7
20260507110037 63 6 1.7 4.3 0.00 0.00 0.00 62 1010.8
20260507105017 63 41 2.6 5.2 0.00 0.00 0.00 62 1010.9
20260507104017 63 71 1.7 3.5 0.00 0.00 0.00 63 1011.0
20260507103017 62 112 0.9 3.5 0.00 0.00 0.00 63 1011.2
20260507102017 62 59 0.9 2.6 0.00 0.00 0.00 65 1011.3
20260507101015 61 55 1.7 5.2 0.00 0.00 0.00 66 1011.4
20260507100017 60 39 1.7 4.3 0.00 0.00 0.00 68 1011.3
20260507095015 60 54 2.6 5.2 0.00 0.00 0.00 68 1011.4
20260507094017 59 49 2.6 4.3 0.00 0.00 0.00 69 1011.4
20260507093015 59 45 1.7 5.2 0.00 0.00 0.00 69 1011.5
20260507092017 59 64 1.7 4.3 0.00 0.00 0.00 69 1011.5
20260507091017 58 17 1.7 5.2 0.00 0.00 0.00 71 1011.5
20260507090017 58 34 1.7 4.3 0.00 0.00 0.00 71 1011.6
20260507085017 57 49 1.7 6.1 0.00 0.00 0.00 73 1011.4
20260507084037 57 31 1.7 5.2 0.00 0.00 0.00 74 1011.4
20260507083017 56 35 1.7 5.2 0.00 0.00 0.00 75 1011.4
20260507082017 55 358 1.7 4.3 0.00 0.00 0.00 77 1011.5
20260507081017 54 343 0.9 3.5 0.00 0.00 0.00 80 1011.6
20260507080015 54 274 0.9 3.5 0.00 0.00 0.00 80 1011.5
20260507075016 54 67 2.6 8.7 0.00 0.00 0.00 80 1011.1
20260507074035 54 74 3.5 7.8 0.00 0.00 0.00 77 1011.3
20260507073015 53 52 3.5 6.1 0.00 0.00 0.00 77 1011.3
20260507072015 53 46 3.5 6.1 0.00 0.00 0.00 77 1011.3
20260507071035 53 41 2.6 5.2 0.00 0.00 0.00 77 1011.8
20260507070015 53 65 1.7 5.2 0.00 0.00 0.00 78 1011.8
20260507065015 53 45 3.5 5.2 0.00 0.00 0.00 77 1011.7
20260507064015 53 43 3.5 5.2 0.00 0.00 0.00 77 1011.6
20260507063015 52 49 3.5 6.1 0.00 0.00 0.00 77 1011.3
20260507062035 52 44 3.5 6.1 0.00 0.00 0.00 78 1011.2
20260507061035 52 40 3.5 7.0 0.00 0.00 0.00 78 1011.3
20260507060015 52 55 3.5 6.1 0.00 0.00 0.00 78 1011.2
20260507055015 52 45 3.5 7.0 0.00 0.00 0.00 78 1011.0
20260507054015 52 43 4.3 7.8 0.00 0.00 0.00 78 1011.0
20260507053015 52 41 3.5 6.1 0.00 0.00 0.00 77 1011.0
20260507052015 52 51 3.5 7.0 0.00 0.00 0.00 77 1011.0
20260507051035 52 48 2.6 5.2 0.00 0.00 0.00 77 1011.0
20260507050015 52 47 2.6 6.1 0.00 0.00 0.00 77 1011.0
20260507045035 52 49 3.5 5.2 0.00 0.00 0.00 76 1011.0
20260507044015 52 47 3.5 5.2 0.00 0.00 0.00 76 1010.8
20260507043035 52 40 2.6 6.1 0.00 0.00 0.00 76 1010.8
20260507042015 52 48 2.6 7.8 0.00 0.00 0.00 75 1010.7
20260507041055 52 42 3.5 7.0 0.00 0.00 0.00 75 1010.7
20260507040015 53 48 2.6 5.2 0.00 0.00 0.00 74 1010.9
20260507035015 53 41 1.7 3.5 0.00 0.00 0.00 74 1011.0
20260507034015 54 37 2.6 4.3 0.00 0.00 0.00 73 1010.8
20260507033035 54 64 0.9 2.6 0.00 0.00 0.00 73 1010.9
20260507032015 55 48 1.7 4.3 0.00 0.00 0.00 73 1010.9
20260507031015 55 68 1.7 3.5 0.00 0.00 0.00 73 1010.8
20260507030035 55 18 1.7 4.3 0.00 0.00 0.00 73 1010.7
20260507025015 55 22 1.7 4.3 0.00 0.00 0.00 73 1010.7
20260507024015 55 23 1.7 4.3 0.00 0.00 0.00 73 1010.8
20260507023015 55 40 1.7 2.6 0.00 0.00 0.00 73 1010.7
20260507022015 55 53 1.7 5.2 0.00 0.00 0.00 73 1010.7
20260507021015 55 33 2.6 4.3 0.00 0.00 0.00 72 1010.9
20260507020015 55 33 2.6 8.7 0.00 0.00 0.00 72 1010.8
20260507015015 54 49 2.6 4.3 0.00 0.00 0.00 68 1010.7
20260507014016 54 49 1.7 5.2 0.00 0.00 0.00 67 1010.8
20260507013015 55 44 0.9 2.6 0.00 0.00 0.00 66 1010.7
20260507012035 55 42 1.7 2.6 0.00 0.00 0.00 65 1010.9
20260507011016 55 67 1.7 2.6 0.00 0.00 0.00 65 1010.9
20260507010015 54 43 1.7 3.5 0.00 0.00 0.00 63 1010.8
20260507005015 54 38 1.7 4.3 0.00 0.00 0.00 61 1010.8
20260507004015 54 75 1.7 5.2 0.00 0.00 0.00 60 1010.9
20260507003015 54 49 2.6 5.2 0.00 0.00 0.00 61 1010.9
20260507002015 54 57 2.6 6.1 0.00 0.00 0.00 59 1010.9
20260507001015 54 64 2.6 7.8 0.00 0.00 0.00 58 1010.9
20260507000015 54 53 4.3 8.7 0.00 0.00 0.00 57 1011.0
20260506235037 55 82 4.3 8.7 0.00 0.00 0.00 55 1011.0
20260506234057 56 52 4.3 7.8 0.00 0.00 0.00 54 1010.7
20260506233017 56 64 3.5 7.0 0.00 0.00 0.00 53 1010.5
20260506232017 56 47 4.3 7.8 0.00 0.00 0.00 52 1010.4
20260506231037 56 64 2.6 5.2 0.00 0.00 0.00 51 1010.4
20260506230017 56 49 3.5 7.8 0.00 0.00 0.00 50 1010.3
20260506225015 57 50 3.5 7.0 0.00 0.00 0.00 49 1010.4
20260506224017 58 53 3.5 7.8 0.00 0.00 0.00 48 1010.4
20260506223017 58 74 2.6 5.2 0.00 0.00 0.00 48 1010.3
20260506222017 58 75 3.5 5.2 0.00 0.00 0.00 48 1010.3
20260506221017 58 51 2.6 4.3 0.00 0.00 0.00 46 1010.1
20260506220017 58 50 2.6 3.5 0.00 0.00 0.00 46 1010.2
20260506215017 59 56 0.9 1.7 0.00 0.00 0.00 45 1010.3
20260506214017 59 56 0.9 2.6 0.00 0.00 0.00 44 1010.2
20260506213017 60 56 1.7 1.7 0.00 0.00 0.00 43 1010.3
20260506212017 60 55 0.9 1.7 0.00 0.00 0.00 42 1010.2
20260506211017 60 54 0.9 2.6 0.00 0.00 0.00 42 1010.1
20260506210017 59 68 0.9 0.9 0.00 0.00 0.00 42 1010.1
20260506205017 60 68 0.9 0.9 0.00 0.00 0.00 42 1010.0
20260506204035 60 68 0.0 0.9 0.00 0.00 0.00 40 1009.9